Eagle Creek, IN

9:27 AM EDT on October 17, 2017 (GMT -0400)
Eagle Creek

Weather History for KEYE - October, 2012

Change the Weather History Date:

Sunday, October 14, 2012

  Actual Average Record
Temperature  
Mean Temperature 63 °F 55 °F  
Max Temperature 73 °F 65 °F 82 °F (2017)
Min Temperature 52 °F 46 °F 33 °F (2002)
Degree Days  
Heating Degree Days 2 10  
Month to date heating degree days 173 114  
Since 1 July heating degree days 274 175  
Cooling Degree Days 0 0  
Month to date cooling degree days 0 12  
Year to date cooling degree days 1338 1055  
Growing Degree Days 14 (Base 50)    
Moisture  
Dew Point 58 °F    
Average Humidity 72    
Maximum Humidity 87    
Minimum Humidity 57    
Precipitation  
Precipitation 0.32 in 0.09 in 1.43 in (2003)
Month to date precipitation 2.28 1.43  
Year to date precipitation 31.54 32.33  
Sea Level Pressure  
Sea Level Pressure 29.75 in    
Wind  
Wind Speed 14 mph (SSW)    
Max Wind Speed 31 mph    
Max Gust Speed 44 mph    
Visibility 9 miles    
Events Rain    
T = Trace of Precipitation, MM = Missing Value Source: NWS Daily Summary

Daily Weather History Graph

Daily Weather History Graph

Search for Another Location

Airport or City:

Trip Planner

Search our weather history database for the weather conditions in past years. The results will help you decide how hot, cold, wet, or windy it might be!

Date:

Astronomy

Oct. 14, 2012 Rise Set
Actual Time 7:54 AM EDT 7:06 PM EDT
Civil Twilight 7:27 AM EDT 7:33 PM EDT
Nautical Twilight 6:56 AM EDT 8:04 PM EDT
Astronomical Twilight 6:25 AM EDT 8:36 PM EDT
Moon 6:53 AM EDT (10/14) 6:26 PM EDT (10/14)
Length of Visible Light 12h 05m
Length of Day
11h 11m
Waning Crescent, 1% of the Moon is Illuminated
Oct 14
Waning Crescent
Oct 15
New
Oct 21
First Quarter
Oct 29
Full
Nov 6
Last Quarter

Hourly Weather History & Observations

Time (EDT) Temp. Dew Point Humidity Pressure Visibility Wind Dir Wind Speed Gust Speed Precip Events Conditions
1:53 AM 66.0 °F 62.1 °F 87% 29.91 in 9.0 mi South 5.8 mph - N/A   Mostly Cloudy
2:53 AM 66.0 °F 62.1 °F 87% 29.89 in 10.0 mi South 5.8 mph - N/A   Scattered Clouds
3:53 AM 66.0 °F 61.0 °F 84% 29.88 in 10.0 mi South 6.9 mph - N/A   Overcast
4:53 AM 66.0 °F 61.0 °F 84% 29.86 in 10.0 mi South 5.8 mph - N/A   Overcast
5:53 AM 66.0 °F 61.0 °F 84% 29.85 in 10.0 mi SSE 6.9 mph - N/A   Mostly Cloudy
6:03 AM 66.2 °F 60.8 °F 83% 29.85 in 10.0 mi South 9.2 mph - N/A   Mostly Cloudy
6:27 AM 66.2 °F 60.8 °F 83% 29.85 in 10.0 mi South 8.1 mph - N/A   Mostly Cloudy
6:53 AM 66.9 °F 61.0 °F 81% 29.82 in 10.0 mi South 8.1 mph - N/A   Overcast
7:53 AM 68.0 °F 61.0 °F 78% 29.79 in 10.0 mi South 12.7 mph 23.0 mph 0.00 in   Overcast
8:06 AM 68.0 °F 60.8 °F 78% 29.80 in 10.0 mi South 12.7 mph 19.6 mph N/A   Overcast
8:53 AM 66.9 °F 61.0 °F 81% 29.79 in 8.0 mi SSW 18.4 mph 28.8 mph 0.01 in Rain Light Rain
9:53 AM 68.0 °F 61.0 °F 78% 29.75 in 10.0 mi South 17.3 mph 28.8 mph 0.01 in   Overcast
10:25 AM 68.0 °F 60.8 °F 78% 29.73 in 10.0 mi South 12.7 mph 23.0 mph N/A   Mostly Cloudy
10:53 AM 68.0 °F 59.0 °F 73% 29.72 in 10.0 mi South 13.8 mph 26.5 mph N/A   Scattered Clouds
11:21 AM 68.0 °F 59.0 °F 73% 29.74 in 10.0 mi South 15.0 mph 25.3 mph N/A   Mostly Cloudy
11:53 AM 69.1 °F 59.0 °F 70% 29.72 in 10.0 mi South 16.1 mph 25.3 mph N/A   Mostly Cloudy
12:17 PM 69.8 °F 60.8 °F 73% 29.72 in 10.0 mi South 15.0 mph 27.6 mph N/A   Overcast
12:53 PM 71.1 °F 59.0 °F 66% 29.71 in 10.0 mi SSW 10.4 mph 28.8 mph N/A   Overcast
1:53 PM 71.1 °F 57.9 °F 63% 29.69 in 10.0 mi SSW 19.6 mph 32.2 mph N/A   Overcast
2:53 PM 72.0 °F 59.0 °F 64% 29.65 in 10.0 mi SSW 16.1 mph 32.2 mph N/A   Scattered Clouds
4:53 PM 70.0 °F 54.0 °F 57% 29.62 in 10.0 mi SW 18.4 mph 35.7 mph N/A   Scattered Clouds
5:53 PM 69.1 °F 53.1 °F 57% 29.62 in 10.0 mi SSW 16.1 mph 32.2 mph N/A   Mostly Cloudy
6:53 PM 68.0 °F 54.0 °F 61% 29.61 in 10.0 mi SSW 17.3 mph 32.2 mph N/A   Overcast
7:36 PM 60.8 °F 57.2 °F 88% 29.67 in 1.5 mi WSW 12.7 mph 36.8 mph 0.19 in Rain Heavy Rain
7:39 PM 60.8 °F 57.2 °F 88% 29.68 in 1.2 mi WSW 13.8 mph 36.8 mph 0.24 in Rain Heavy Rain
7:45 PM 60.8 °F 57.2 °F 88% 29.67 in 2.0 mi West 13.8 mph 23.0 mph 0.25 in Rain Rain
7:53 PM 60.1 °F 57.9 °F 93% 29.67 in 5.0 mi WSW 13.8 mph 27.6 mph 0.27 in Rain Rain
8:20 PM 60.8 °F 57.2 °F 88% 29.69 in 10.0 mi West 9.2 mph 19.6 mph 0.02 in   Overcast
8:53 PM 60.1 °F 54.0 °F 80% 29.70 in 10.0 mi West 17.3 mph 31.1 mph 0.02 in   Overcast
9:23 PM 57.2 °F 53.6 °F 88% 29.74 in 10.0 mi West 17.3 mph 24.2 mph N/A   Mostly Cloudy
9:53 PM 55.9 °F 51.1 °F 84% 29.76 in 10.0 mi WNW 20.7 mph 33.4 mph 0.01 in   Overcast
10:53 PM 55.0 °F 48.9 °F 80% 29.79 in 10.0 mi WNW 19.6 mph 28.8 mph N/A   Overcast
11:53 PM 54.0 °F 48.9 °F 83% 29.81 in 10.0 mi WNW 16.1 mph 25.3 mph N/A   Overcast